Year,Month,Day,Hour,Minute,Value (Times are PST for windgust in km/hr)
2018,07,02,00,00,9.60
2018,07,02,00,01,6.40
2018,07,02,00,04,11.30
2018,07,02,00,05,9.60
2018,07,02,00,06,17.70
2018,07,02,00,09,16.10
2018,07,02,00,10,8.10
2018,07,02,00,11,4.80
2018,07,02,00,12,22.50
2018,07,02,00,13,6.40
2018,07,02,00,14,8.10
2018,07,02,00,15,8.10
2018,07,02,00,16,8.10
2018,07,02,00,17,8.10
2018,07,02,00,18,8.10
2018,07,02,00,24,11.30
2018,07,02,00,25,4.80
2018,07,02,00,26,11.30
2018,07,02,00,30,11.30
2018,07,02,00,31,8.10
2018,07,02,00,32,1.60
2018,07,02,00,33,4.80
2018,07,02,00,34,4.80
2018,07,02,00,38,11.30
2018,07,02,00,46,4.80
2018,07,02,00,47,3.20
2018,07,02,00,48,16.10
2018,07,02,00,49,8.10
2018,07,02,00,50,8.10
2018,07,02,00,51,6.40
2018,07,02,00,52,4.80
2018,07,02,01,11,4.80
2018,07,02,01,12,8.10
2018,07,02,01,13,14.50
2018,07,02,01,14,9.60
2018,07,02,01,20,11.30
2018,07,02,01,21,6.40
2018,07,02,01,24,3.20
2018,07,02,01,25,6.40
2018,07,02,01,26,6.40
2018,07,02,01,30,4.80
2018,07,02,01,32,6.40
2018,07,02,01,33,8.10
2018,07,02,01,34,8.10
2018,07,02,01,35,6.40
2018,07,02,01,37,1.60
2018,07,02,01,39,8.10
2018,07,02,01,41,8.10
2018,07,02,01,42,9.60
2018,07,02,01,46,8.10
2018,07,02,01,47,6.40
2018,07,02,01,48,4.80
2018,07,02,01,54,4.80
2018,07,02,02,01,9.60
2018,07,02,02,02,6.40
2018,07,02,02,15,6.40
2018,07,02,02,22,4.80
2018,07,02,02,24,1.60
2018,07,02,02,28,6.40
2018,07,02,02,35,4.80
2018,07,02,02,39,8.10
2018,07,02,02,41,4.80
2018,07,02,02,46,8.10
2018,07,02,02,47,14.50
2018,07,02,02,48,8.10
2018,07,02,02,49,6.40
2018,07,02,02,50,11.30
2018,07,02,02,51,9.60
2018,07,02,02,52,8.10
2018,07,02,02,54,4.80
2018,07,02,02,56,8.10
2018,07,02,02,58,4.80
2018,07,02,02,59,8.10
2018,07,02,03,00,8.10
2018,07,02,03,01,4.80
2018,07,02,03,02,8.10
2018,07,02,03,03,9.60
2018,07,02,03,04,9.60
2018,07,02,03,05,4.80
2018,07,02,03,07,6.40
2018,07,02,03,08,11.30
2018,07,02,03,09,8.10
2018,07,02,03,15,8.10
2018,07,02,03,16,9.60
2018,07,02,03,17,4.80
2018,07,02,03,19,1.60
2018,07,02,03,21,4.80
2018,07,02,03,26,3.20
2018,07,02,03,27,4.80
2018,07,02,03,30,8.10
2018,07,02,03,31,14.50
2018,07,02,03,32,11.30
2018,07,02,03,33,9.60
2018,07,02,03,34,11.30
2018,07,02,03,35,6.40
2018,07,02,03,36,8.10
2018,07,02,03,37,8.10
2018,07,02,03,38,9.60
2018,07,02,03,39,8.10
2018,07,02,03,40,1.60
2018,07,02,03,41,6.40
2018,07,02,03,42,9.60
2018,07,02,03,43,11.30
2018,07,02,03,44,8.10
2018,07,02,03,45,1.60
2018,07,02,03,51,4.80
2018,07,02,03,54,9.60
2018,07,02,03,55,17.70
2018,07,02,03,56,4.80
2018,07,02,03,57,6.40
2018,07,02,03,58,17.70
2018,07,02,03,59,14.50
2018,07,02,04,00,14.50
2018,07,02,04,01,11.30
2018,07,02,04,02,8.10
2018,07,02,04,03,3.20
2018,07,02,04,04,9.60
2018,07,02,04,05,4.80
2018,07,02,04,06,9.60
2018,07,02,04,07,3.20
2018,07,02,04,08,4.80
2018,07,02,04,09,1.60
2018,07,02,04,12,8.10
2018,07,02,04,13,4.80
2018,07,02,04,14,1.60
2018,07,02,04,15,9.60
2018,07,02,04,16,8.10
2018,07,02,04,17,9.60
2018,07,02,04,18,9.60
2018,07,02,04,19,11.30
2018,07,02,04,21,9.60
2018,07,02,04,23,4.80
2018,07,02,04,24,6.40
2018,07,02,04,26,6.40
2018,07,02,04,27,6.40
2018,07,02,04,28,4.80
2018,07,02,04,30,9.60
2018,07,02,04,31,8.10
2018,07,02,04,32,3.20
2018,07,02,04,33,6.40
2018,07,02,04,34,11.30
2018,07,02,04,39,16.10
2018,07,02,04,40,19.30
2018,07,02,04,43,14.50
2018,07,02,04,44,12.90
2018,07,02,04,45,1.60
2018,07,02,04,46,6.40
2018,07,02,04,47,1.60
2018,07,02,04,50,1.60
2018,07,02,04,53,4.80
2018,07,02,04,54,3.20
2018,07,02,04,56,1.60
2018,07,02,04,57,6.40
2018,07,02,04,58,8.10
2018,07,02,05,05,1.60
2018,07,02,05,15,9.60
2018,07,02,05,16,4.80
2018,07,02,05,17,6.40
2018,07,02,05,23,3.20
2018,07,02,05,24,3.20
2018,07,02,05,25,8.10
2018,07,02,05,26,4.80
2018,07,02,05,31,6.40
2018,07,02,05,32,11.30
2018,07,02,05,34,3.20
2018,07,02,05,38,9.60
2018,07,02,05,40,8.10
2018,07,02,05,41,12.90
2018,07,02,05,43,4.80
2018,07,02,05,46,11.30
2018,07,02,05,47,4.80
2018,07,02,05,48,9.60
2018,07,02,05,50,6.40
2018,07,02,05,51,8.10
2018,07,02,05,52,16.10
2018,07,02,05,53,14.50
2018,07,02,05,54,14.50
2018,07,02,05,56,17.70
2018,07,02,05,57,17.70
2018,07,02,05,58,9.60
2018,07,02,05,59,14.50
2018,07,02,06,00,6.40
2018,07,02,06,01,11.30
2018,07,02,06,03,9.60
2018,07,02,06,04,3.20
2018,07,02,06,06,9.60
2018,07,02,06,08,1.60
2018,07,02,06,11,17.70
2018,07,02,06,12,16.10
2018,07,02,06,13,17.70
2018,07,02,06,14,11.30
2018,07,02,06,15,9.60
2018,07,02,06,16,4.80
2018,07,02,06,17,17.70
2018,07,02,06,18,19.30
2018,07,02,06,19,16.10
2018,07,02,06,20,8.10
2018,07,02,06,21,8.10
2018,07,02,06,23,14.50
2018,07,02,06,24,8.10
2018,07,02,06,25,16.10
2018,07,02,06,26,19.30
2018,07,02,06,27,17.70
2018,07,02,06,28,17.70
2018,07,02,06,29,8.10
2018,07,02,06,30,14.50
2018,07,02,06,31,19.30
2018,07,02,06,32,11.30
2018,07,02,06,33,17.70
2018,07,02,06,34,11.30
2018,07,02,06,35,17.70
2018,07,02,06,36,3.20
2018,07,02,06,37,20.90
2018,07,02,06,38,14.50
2018,07,02,06,39,11.30
2018,07,02,06,40,11.30
2018,07,02,06,41,17.70
2018,07,02,06,42,11.30
2018,07,02,06,43,9.60
2018,07,02,06,44,6.40
2018,07,02,06,45,9.60
2018,07,02,06,46,14.50
2018,07,02,06,47,16.10
2018,07,02,06,48,14.50
2018,07,02,06,49,11.30
2018,07,02,06,50,14.50
2018,07,02,06,51,11.30
2018,07,02,06,52,19.30
2018,07,02,06,53,24.20
2018,07,02,06,54,14.50
2018,07,02,06,55,11.30
2018,07,02,06,56,17.70
2018,07,02,06,57,19.30
2018,07,02,06,58,14.50
2018,07,02,06,59,9.60
2018,07,02,07,00,14.50
2018,07,02,07,01,8.10
2018,07,02,07,02,8.10
2018,07,02,07,03,19.30
2018,07,02,07,04,17.70
2018,07,02,07,05,8.10
2018,07,02,07,06,17.70
2018,07,02,07,07,17.70
2018,07,02,07,08,16.10
2018,07,02,07,09,8.10
2018,07,02,07,10,9.60
2018,07,02,07,11,11.30
2018,07,02,07,12,19.30
2018,07,02,07,13,16.10
2018,07,02,07,14,19.30
2018,07,02,07,15,9.60
2018,07,02,07,16,14.50
2018,07,02,07,17,9.60
2018,07,02,07,18,9.60
2018,07,02,07,19,6.40
2018,07,02,07,20,9.60
2018,07,02,07,21,6.40
2018,07,02,07,23,9.60
2018,07,02,07,24,14.50
2018,07,02,07,25,14.50
2018,07,02,07,26,16.10
2018,07,02,07,27,22.50
2018,07,02,07,28,17.70
2018,07,02,07,29,8.10
2018,07,02,07,30,3.20
2018,07,02,07,31,20.90
2018,07,02,07,32,6.40
2018,07,02,07,33,19.30
2018,07,02,07,34,8.10
2018,07,02,07,35,8.10
2018,07,02,07,36,8.10
2018,07,02,07,37,11.30
2018,07,02,07,38,16.10
2018,07,02,07,39,8.10
2018,07,02,07,40,22.50
2018,07,02,07,41,20.90
2018,07,02,07,42,20.90
2018,07,02,07,43,17.70
2018,07,02,07,44,24.20
2018,07,02,07,45,20.90
2018,07,02,07,46,14.50
2018,07,02,07,47,11.30
2018,07,02,07,48,25.70
2018,07,02,07,49,16.10
2018,07,02,07,50,22.50
2018,07,02,07,51,27.40
2018,07,02,07,52,19.30
2018,07,02,07,53,19.30
2018,07,02,07,54,20.90
2018,07,02,07,55,19.30
2018,07,02,07,56,33.80
2018,07,02,07,57,29.00
2018,07,02,07,58,32.20
2018,07,02,07,59,22.50
2018,07,02,08,00,17.70
2018,07,02,08,01,16.10
2018,07,02,08,02,24.20
2018,07,02,08,03,14.50
2018,07,02,08,04,19.30
2018,07,02,08,05,25.70
2018,07,02,08,06,20.90
2018,07,02,08,07,22.50
2018,07,02,08,08,22.50
2018,07,02,08,09,16.10
2018,07,02,08,10,16.10
2018,07,02,08,11,27.40
2018,07,02,08,12,22.50
2018,07,02,08,13,22.50
2018,07,02,08,14,16.10
2018,07,02,08,15,25.70
2018,07,02,08,16,24.20
2018,07,02,08,17,19.30
2018,07,02,08,18,14.50
2018,07,02,08,19,16.10
2018,07,02,08,20,11.30
2018,07,02,08,21,16.10
2018,07,02,08,22,25.70
2018,07,02,08,23,29.00
2018,07,02,08,24,29.00
2018,07,02,08,25,29.00
2018,07,02,08,26,17.70
2018,07,02,08,27,17.70
2018,07,02,08,28,17.70
2018,07,02,08,29,25.70
2018,07,02,08,30,20.90
2018,07,02,08,31,29.00
2018,07,02,08,32,17.70
2018,07,02,08,33,22.50
2018,07,02,08,34,32.20
2018,07,02,08,35,17.70
2018,07,02,08,36,11.30
2018,07,02,08,37,16.10
2018,07,02,08,38,20.90
2018,07,02,08,39,40.20
2018,07,02,08,40,35.40
2018,07,02,08,41,29.00
2018,07,02,08,42,29.00
2018,07,02,08,43,25.70
2018,07,02,08,44,17.70
2018,07,02,08,45,19.30
2018,07,02,08,46,19.30
2018,07,02,08,47,25.70
2018,07,02,08,48,14.50
2018,07,02,08,49,11.30
2018,07,02,08,50,16.10
2018,07,02,08,51,27.40
2018,07,02,08,52,16.10
2018,07,02,08,53,16.10
2018,07,02,08,54,25.70
2018,07,02,08,55,24.20
2018,07,02,08,56,29.00
2018,07,02,08,57,19.30
2018,07,02,08,58,19.30
2018,07,02,08,59,22.50
2018,07,02,09,00,30.60
2018,07,02,09,01,25.70
2018,07,02,09,02,33.80
2018,07,02,09,03,53.10
2018,07,02,09,04,35.40
2018,07,02,09,05,32.20
2018,07,02,09,06,32.20
2018,07,02,09,07,25.70
2018,07,02,09,08,30.60
2018,07,02,09,09,30.60
2018,07,02,09,10,29.00
2018,07,02,09,11,22.50
2018,07,02,09,12,17.70
2018,07,02,09,13,37.00
2018,07,02,09,14,19.30
2018,07,02,09,15,19.30
2018,07,02,09,16,32.20
2018,07,02,09,17,37.00
2018,07,02,09,18,38.60
2018,07,02,09,19,27.40
2018,07,02,09,20,33.80
2018,07,02,09,21,38.60
2018,07,02,09,22,24.20
2018,07,02,09,23,30.60
2018,07,02,09,24,11.30
2018,07,02,09,25,17.70
2018,07,02,09,26,14.50
2018,07,02,09,27,16.10
2018,07,02,09,28,30.60
2018,07,02,09,29,25.70
2018,07,02,09,30,9.60
2018,07,02,09,31,9.60
2018,07,02,09,32,9.60
2018,07,02,09,33,9.60
2018,07,02,09,34,25.70
2018,07,02,09,35,27.40
2018,07,02,09,36,17.70
2018,07,02,09,37,35.40
2018,07,02,09,38,17.70
2018,07,02,09,39,27.40
2018,07,02,09,40,33.80
2018,07,02,09,41,29.00
2018,07,02,09,42,16.10
2018,07,02,09,43,20.90
2018,07,02,09,44,30.60
2018,07,02,09,45,24.20
2018,07,02,09,46,25.70
2018,07,02,09,47,32.20
2018,07,02,09,48,22.50
2018,07,02,09,49,24.20
2018,07,02,09,50,20.90
2018,07,02,09,51,19.30
2018,07,02,09,52,17.70
2018,07,02,09,53,9.60
2018,07,02,09,54,11.30
2018,07,02,09,55,17.70
2018,07,02,09,56,20.90
2018,07,02,09,57,19.30
2018,07,02,09,58,22.50
2018,07,02,09,59,27.40
2018,07,02,10,00,17.70
2018,07,02,10,01,25.70
2018,07,02,10,02,29.00
2018,07,02,10,03,38.60
2018,07,02,10,04,29.00
2018,07,02,10,05,22.50
2018,07,02,10,06,25.70
2018,07,02,10,07,27.40
2018,07,02,10,08,20.90
2018,07,02,10,09,37.00
2018,07,02,10,10,27.40
2018,07,02,10,11,43.50
2018,07,02,10,12,33.80
2018,07,02,10,13,30.60
2018,07,02,10,14,22.50
2018,07,02,10,15,25.70
2018,07,02,10,16,14.50
2018,07,02,10,17,25.70
2018,07,02,10,18,30.60
2018,07,02,10,19,33.80
2018,07,02,10,20,24.20
2018,07,02,10,21,19.30
2018,07,02,10,22,24.20
2018,07,02,10,23,20.90
2018,07,02,10,24,33.80
2018,07,02,10,25,27.40
2018,07,02,10,26,35.40
2018,07,02,10,27,29.00
2018,07,02,10,28,29.00
2018,07,02,10,29,27.40
2018,07,02,10,30,25.70
2018,07,02,10,31,25.70
2018,07,02,10,32,25.70
2018,07,02,10,33,20.90
2018,07,02,10,34,27.40
2018,07,02,10,35,20.90
2018,07,02,10,36,25.70
2018,07,02,10,37,30.60
2018,07,02,10,38,8.10
2018,07,02,10,39,20.90
2018,07,02,10,40,14.50
2018,07,02,10,41,12.90
2018,07,02,10,42,24.20
2018,07,02,10,43,16.10
2018,07,02,10,44,14.50
2018,07,02,10,45,24.20
2018,07,02,10,46,32.20
2018,07,02,10,47,38.60
2018,07,02,10,48,27.40
2018,07,02,10,49,22.50
2018,07,02,10,50,27.40
2018,07,02,10,51,35.40
2018,07,02,10,52,19.30
2018,07,02,10,53,27.40
2018,07,02,10,54,29.00
2018,07,02,10,55,27.40
2018,07,02,10,56,22.50
2018,07,02,10,57,22.50
2018,07,02,10,58,24.20
2018,07,02,10,59,22.50
2018,07,02,11,00,29.00
2018,07,02,11,01,20.90
2018,07,02,11,02,22.50
2018,07,02,11,03,25.70
2018,07,02,11,04,30.60
2018,07,02,11,05,25.70
2018,07,02,11,06,24.20
2018,07,02,11,07,25.70
2018,07,02,11,08,27.40
2018,07,02,11,09,22.50
2018,07,02,11,10,35.40
2018,07,02,11,11,38.60
2018,07,02,11,12,30.60
2018,07,02,11,13,30.60
2018,07,02,11,14,19.30
2018,07,02,11,15,19.30
2018,07,02,11,16,17.70
2018,07,02,11,17,19.30
2018,07,02,11,18,19.30
2018,07,02,11,19,8.10
2018,07,02,11,20,22.50
2018,07,02,11,21,17.70
2018,07,02,11,22,19.30
2018,07,02,11,23,22.50
2018,07,02,11,24,27.40
2018,07,02,11,25,38.60
2018,07,02,11,26,17.70
2018,07,02,11,27,20.90
2018,07,02,11,28,24.20
2018,07,02,11,29,24.20
2018,07,02,11,30,25.70
2018,07,02,11,31,30.60
2018,07,02,11,32,30.60
2018,07,02,11,33,33.80
2018,07,02,11,34,25.70
2018,07,02,11,35,17.70
2018,07,02,11,36,19.30
2018,07,02,11,37,22.50
2018,07,02,11,38,17.70
2018,07,02,11,39,24.20
2018,07,02,11,40,27.40
2018,07,02,11,41,25.70
2018,07,02,11,42,25.70
2018,07,02,11,43,22.50
2018,07,02,11,44,12.90
2018,07,02,11,45,17.70
2018,07,02,11,46,19.30
2018,07,02,11,47,22.50
2018,07,02,11,48,24.20
2018,07,02,11,49,24.20
2018,07,02,11,50,24.20
2018,07,02,11,51,16.10
2018,07,02,11,52,24.20
2018,07,02,11,53,24.20
2018,07,02,11,54,27.40
2018,07,02,11,55,16.10
2018,07,02,11,56,17.70
2018,07,02,11,57,19.30
2018,07,02,11,58,22.50
2018,07,02,11,59,17.70
2018,07,02,12,00,30.60
2018,07,02,12,01,27.40
2018,07,02,12,02,19.30
2018,07,02,12,03,25.70
2018,07,02,12,04,11.30
2018,07,02,12,05,22.50
2018,07,02,12,06,24.20
2018,07,02,12,07,33.80
2018,07,02,12,08,32.20
2018,07,02,12,09,22.50
2018,07,02,12,10,27.40
2018,07,02,12,11,20.90
2018,07,02,12,12,22.50
2018,07,02,12,13,22.50
2018,07,02,12,14,29.00
2018,07,02,12,15,27.40
2018,07,02,12,16,29.00
2018,07,02,12,17,22.50
2018,07,02,12,18,29.00
2018,07,02,12,19,22.50
2018,07,02,12,20,17.70
2018,07,02,12,21,25.70
2018,07,02,12,22,27.40
2018,07,02,12,23,38.60
2018,07,02,12,24,20.90
2018,07,02,12,25,22.50
2018,07,02,12,26,16.10
2018,07,02,12,27,17.70
2018,07,02,12,28,20.90
2018,07,02,12,29,19.30
2018,07,02,12,30,30.60
2018,07,02,12,31,19.30
2018,07,02,12,32,19.30
2018,07,02,12,33,29.00
2018,07,02,12,34,29.00
2018,07,02,12,35,24.20
2018,07,02,12,36,25.70
2018,07,02,12,37,22.50
2018,07,02,12,38,24.20
2018,07,02,12,39,22.50
2018,07,02,12,40,25.70
2018,07,02,12,41,25.70
2018,07,02,12,42,22.50
2018,07,02,12,43,25.70
2018,07,02,12,44,20.90
2018,07,02,12,45,32.20
2018,07,02,12,46,17.70
2018,07,02,12,47,30.60
2018,07,02,12,48,30.60
2018,07,02,12,49,17.70
2018,07,02,12,50,24.20
2018,07,02,12,51,17.70
2018,07,02,12,52,24.20
2018,07,02,12,53,22.50
2018,07,02,12,54,25.70
2018,07,02,12,55,25.70
2018,07,02,12,56,24.20
2018,07,02,12,57,24.20
2018,07,02,12,58,19.30
2018,07,02,12,59,30.60
2018,07,02,13,00,24.20
2018,07,02,13,01,17.70
2018,07,02,13,02,27.40
2018,07,02,13,03,30.60
2018,07,02,13,04,20.90
2018,07,02,13,05,19.30
2018,07,02,13,06,20.90
2018,07,02,13,07,17.70
2018,07,02,13,08,20.90
2018,07,02,13,09,22.50
2018,07,02,13,10,20.90
2018,07,02,13,11,24.20
2018,07,02,13,12,19.30
2018,07,02,13,13,25.70
2018,07,02,13,14,22.50
2018,07,02,13,15,27.40
2018,07,02,13,16,22.50
2018,07,02,13,17,20.90
2018,07,02,13,18,17.70
2018,07,02,13,19,9.60
2018,07,02,13,20,8.10
2018,07,02,13,21,20.90
2018,07,02,13,22,11.30
2018,07,02,13,23,16.10
2018,07,02,13,24,14.50
2018,07,02,13,25,8.10
2018,07,02,13,26,14.50
2018,07,02,13,27,27.40
2018,07,02,13,28,29.00
2018,07,02,13,29,17.70
2018,07,02,13,30,14.50
2018,07,02,13,31,25.70
2018,07,02,13,32,22.50
2018,07,02,13,33,16.10
2018,07,02,13,34,11.30
2018,07,02,13,35,27.40
2018,07,02,13,36,24.20
2018,07,02,13,37,30.60
2018,07,02,13,38,32.20
2018,07,02,13,39,30.60
2018,07,02,13,40,19.30
2018,07,02,13,41,22.50
2018,07,02,13,42,29.00
2018,07,02,13,43,22.50
2018,07,02,13,44,19.30
2018,07,02,13,45,14.50
2018,07,02,13,46,11.30
2018,07,02,13,47,17.70
2018,07,02,13,48,14.50
2018,07,02,13,49,17.70
2018,07,02,13,50,30.60
2018,07,02,13,51,24.20
2018,07,02,13,52,22.50
2018,07,02,13,53,20.90
2018,07,02,13,54,19.30
2018,07,02,13,55,24.20
2018,07,02,13,56,25.70
2018,07,02,13,57,17.70
2018,07,02,13,58,20.90
2018,07,02,13,59,19.30
2018,07,02,14,00,19.30
2018,07,02,14,01,25.70
2018,07,02,14,02,16.10
2018,07,02,14,03,19.30
2018,07,02,14,04,16.10
2018,07,02,14,05,17.70
2018,07,02,14,06,16.10
2018,07,02,14,07,14.50
2018,07,02,14,08,29.00
2018,07,02,14,09,22.50
2018,07,02,14,10,16.10
2018,07,02,14,11,19.30
2018,07,02,14,12,20.90
2018,07,02,14,13,19.30
2018,07,02,14,14,8.10
2018,07,02,14,15,14.50
2018,07,02,14,16,19.30
2018,07,02,14,17,20.90
2018,07,02,14,18,20.90
2018,07,02,14,19,20.90
2018,07,02,14,20,27.40
2018,07,02,14,21,24.20
2018,07,02,14,22,25.70
2018,07,02,14,23,20.90
2018,07,02,14,24,24.20
2018,07,02,14,25,29.00
2018,07,02,14,26,27.40
2018,07,02,14,27,20.90
2018,07,02,14,28,20.90
2018,07,02,14,29,30.60
2018,07,02,14,30,20.90
2018,07,02,14,31,20.90
2018,07,02,14,32,19.30
2018,07,02,14,33,24.20
2018,07,02,14,34,14.50
2018,07,02,14,35,11.30
2018,07,02,14,36,20.90
2018,07,02,14,37,25.70
2018,07,02,14,38,19.30
2018,07,02,14,39,27.40
2018,07,02,14,40,27.40
2018,07,02,14,41,24.20
2018,07,02,14,42,24.20
2018,07,02,14,43,19.30
2018,07,02,14,44,25.70
2018,07,02,14,45,20.90
2018,07,02,14,46,30.60
2018,07,02,14,47,22.50
2018,07,02,14,48,16.10
2018,07,02,14,49,17.70
2018,07,02,14,50,20.90
2018,07,02,14,51,17.70
2018,07,02,14,52,16.10
2018,07,02,14,53,22.50
2018,07,02,14,54,24.20
2018,07,02,14,55,19.30
2018,07,02,14,56,24.20
2018,07,02,14,57,20.90
2018,07,02,14,58,25.70
2018,07,02,14,59,12.90
2018,07,02,15,00,11.30
2018,07,02,15,01,20.90
2018,07,02,15,02,35.40
2018,07,02,15,03,32.20
2018,07,02,15,04,24.20
2018,07,02,15,05,22.50
2018,07,02,15,06,29.00
2018,07,02,15,07,30.60
2018,07,02,15,08,20.90
2018,07,02,15,09,24.20
2018,07,02,15,10,20.90
2018,07,02,15,11,16.10
2018,07,02,15,12,30.60
2018,07,02,15,13,17.70
2018,07,02,15,14,27.40
2018,07,02,15,15,29.00
2018,07,02,15,16,27.40
2018,07,02,15,17,14.50
2018,07,02,15,18,25.70
2018,07,02,15,19,22.50
2018,07,02,15,20,22.50
2018,07,02,15,21,27.40
2018,07,02,15,22,30.60
2018,07,02,15,23,24.20
2018,07,02,15,24,22.50
2018,07,02,15,25,25.70
2018,07,02,15,26,27.40
2018,07,02,15,27,16.10
2018,07,02,15,28,30.60
2018,07,02,15,29,25.70
2018,07,02,15,30,27.40
2018,07,02,15,31,20.90
2018,07,02,15,32,25.70
2018,07,02,15,33,25.70
2018,07,02,15,34,17.70
2018,07,02,15,35,16.10
2018,07,02,15,36,19.30
2018,07,02,15,37,16.10
2018,07,02,15,38,16.10
2018,07,02,15,39,19.30
2018,07,02,15,40,20.90
2018,07,02,15,41,27.40
2018,07,02,15,42,22.50
2018,07,02,15,43,20.90
2018,07,02,15,44,19.30
2018,07,02,15,45,29.00
2018,07,02,15,46,20.90
2018,07,02,15,47,20.90
2018,07,02,15,48,22.50
2018,07,02,15,49,19.30
2018,07,02,15,50,17.70
2018,07,02,15,51,20.90
2018,07,02,15,52,27.40
2018,07,02,15,53,22.50
2018,07,02,15,54,17.70
2018,07,02,15,55,11.30
2018,07,02,15,56,17.70
2018,07,02,15,57,25.70
2018,07,02,15,58,22.50
2018,07,02,15,59,24.20
2018,07,02,16,00,17.70
2018,07,02,16,01,22.50
2018,07,02,16,02,25.70
2018,07,02,16,03,24.20
2018,07,02,16,04,19.30
2018,07,02,16,05,17.70
2018,07,02,16,06,19.30
2018,07,02,16,07,14.50
2018,07,02,16,08,24.20
2018,07,02,16,09,25.70
2018,07,02,16,10,17.70
2018,07,02,16,11,25.70
2018,07,02,16,12,37.00
2018,07,02,16,13,25.70
2018,07,02,16,14,27.40
2018,07,02,16,15,25.70
2018,07,02,16,16,25.70
2018,07,02,16,17,19.30
2018,07,02,16,18,24.20
2018,07,02,16,19,14.50
2018,07,02,16,20,8.10
2018,07,02,16,21,20.90
2018,07,02,16,22,19.30
2018,07,02,16,23,20.90
2018,07,02,16,24,19.30
2018,07,02,16,25,16.10
2018,07,02,16,26,16.10
2018,07,02,16,27,25.70
2018,07,02,16,28,22.50
2018,07,02,16,29,20.90
2018,07,02,16,30,24.20
2018,07,02,16,31,22.50
2018,07,02,16,32,20.90
2018,07,02,16,33,25.70
2018,07,02,16,34,20.90
2018,07,02,16,35,20.90
2018,07,02,16,36,22.50
2018,07,02,16,37,17.70
2018,07,02,16,38,29.00
2018,07,02,16,39,24.20
2018,07,02,16,40,20.90
2018,07,02,16,41,12.90
2018,07,02,16,42,17.70
2018,07,02,16,43,22.50
2018,07,02,16,44,24.20
2018,07,02,16,45,16.10
2018,07,02,16,46,24.20
2018,07,02,16,47,27.40
2018,07,02,16,48,19.30
2018,07,02,16,49,24.20
2018,07,02,16,50,17.70
2018,07,02,16,51,8.10
2018,07,02,16,52,16.10
2018,07,02,16,53,16.10
2018,07,02,16,54,16.10
2018,07,02,16,55,17.70
2018,07,02,16,56,22.50
2018,07,02,16,57,16.10
2018,07,02,16,58,22.50
2018,07,02,16,59,24.20
2018,07,02,17,00,19.30
2018,07,02,17,01,16.10
2018,07,02,17,02,20.90
2018,07,02,17,03,19.30
2018,07,02,17,04,19.30
2018,07,02,17,05,22.50
2018,07,02,17,06,16.10
2018,07,02,17,07,27.40
2018,07,02,17,08,27.40
2018,07,02,17,09,25.70
2018,07,02,17,10,20.90
2018,07,02,17,11,29.00
2018,07,02,17,12,32.20
2018,07,02,17,13,25.70
2018,07,02,17,14,32.20
2018,07,02,17,15,27.40
2018,07,02,17,16,24.20
2018,07,02,17,17,25.70
2018,07,02,17,18,14.50
2018,07,02,17,19,24.20
2018,07,02,17,20,22.50
2018,07,02,17,21,22.50
2018,07,02,17,22,25.70
2018,07,02,17,23,20.90
2018,07,02,17,24,29.00
2018,07,02,17,25,17.70
2018,07,02,17,26,22.50
2018,07,02,17,27,20.90
2018,07,02,17,28,24.20
2018,07,02,17,29,24.20
2018,07,02,17,30,17.70
2018,07,02,17,31,27.40
2018,07,02,17,32,27.40
2018,07,02,17,33,25.70
2018,07,02,17,34,16.10
2018,07,02,17,35,19.30
2018,07,02,17,36,19.30
2018,07,02,17,37,19.30
2018,07,02,17,38,11.30
2018,07,02,17,39,14.50
2018,07,02,17,40,24.20
2018,07,02,17,41,17.70
2018,07,02,17,42,22.50
2018,07,02,17,43,20.90
2018,07,02,17,44,22.50
2018,07,02,17,45,17.70
2018,07,02,17,46,16.10
2018,07,02,17,47,20.90
2018,07,02,17,48,24.20
2018,07,02,17,49,22.50
2018,07,02,17,50,17.70
2018,07,02,17,51,17.70
2018,07,02,17,52,19.30
2018,07,02,17,53,20.90
2018,07,02,17,54,17.70
2018,07,02,17,55,25.70
2018,07,02,17,56,25.70
2018,07,02,17,57,14.50
2018,07,02,17,58,27.40
2018,07,02,17,59,16.10
2018,07,02,18,00,17.70
2018,07,02,18,01,19.30
2018,07,02,18,02,19.30
2018,07,02,18,03,14.50
2018,07,02,18,04,17.70
2018,07,02,18,05,14.50
2018,07,02,18,06,8.10
2018,07,02,18,07,17.70
2018,07,02,18,08,16.10
2018,07,02,18,09,12.90
2018,07,02,18,10,27.40
2018,07,02,18,11,19.30
2018,07,02,18,12,16.10
2018,07,02,18,13,16.10
2018,07,02,18,14,24.20
2018,07,02,18,15,25.70
2018,07,02,18,16,24.20
2018,07,02,18,17,20.90
2018,07,02,18,18,22.50
2018,07,02,18,19,11.30
2018,07,02,18,20,16.10
2018,07,02,18,21,20.90
2018,07,02,18,22,22.50
2018,07,02,18,23,27.40
2018,07,02,18,24,22.50
2018,07,02,18,25,22.50
2018,07,02,18,26,17.70
2018,07,02,18,27,20.90
2018,07,02,18,28,20.90
2018,07,02,18,29,6.40
2018,07,02,18,31,12.90
2018,07,02,18,32,11.30
2018,07,02,18,33,11.30
2018,07,02,18,34,12.90
2018,07,02,18,35,11.30
2018,07,02,18,36,1.60
2018,07,02,18,37,11.30
2018,07,02,18,38,22.50
2018,07,02,18,39,22.50
2018,07,02,18,40,19.30
2018,07,02,18,41,11.30
2018,07,02,18,42,16.10
2018,07,02,18,43,19.30
2018,07,02,18,44,16.10
2018,07,02,18,45,12.90
2018,07,02,18,46,8.10
2018,07,02,18,47,11.30
2018,07,02,18,48,16.10
2018,07,02,18,49,16.10
2018,07,02,18,50,11.30
2018,07,02,18,51,14.50
2018,07,02,18,52,16.10
2018,07,02,18,53,16.10
2018,07,02,18,54,14.50
2018,07,02,18,55,19.30
2018,07,02,18,56,16.10
2018,07,02,18,57,17.70
2018,07,02,18,58,17.70
2018,07,02,18,59,11.30
2018,07,02,19,02,3.20
2018,07,02,19,03,4.80
2018,07,02,19,04,17.70
2018,07,02,19,05,9.60
2018,07,02,19,06,16.10
2018,07,02,19,07,17.70
2018,07,02,19,08,16.10
2018,07,02,19,09,19.30
2018,07,02,19,10,14.50
2018,07,02,19,11,4.80
2018,07,02,19,12,17.70
2018,07,02,19,13,16.10
2018,07,02,19,14,17.70
2018,07,02,19,15,14.50
2018,07,02,19,16,14.50
2018,07,02,19,17,6.40
2018,07,02,19,18,3.20
2018,07,02,19,19,12.90
2018,07,02,19,20,17.70
2018,07,02,19,21,6.40
2018,07,02,19,22,3.20
2018,07,02,19,25,4.80
2018,07,02,19,26,9.60
2018,07,02,19,27,11.30
2018,07,02,19,28,8.10
2018,07,02,19,30,8.10
2018,07,02,19,35,4.80
2018,07,02,19,36,17.70
2018,07,02,19,37,11.30
2018,07,02,19,38,6.40
2018,07,02,19,39,4.80
2018,07,02,19,40,20.90
2018,07,02,19,41,16.10
2018,07,02,19,42,9.60
2018,07,02,19,43,1.60
2018,07,02,19,44,11.30
2018,07,02,19,45,19.30
2018,07,02,19,46,19.30
2018,07,02,19,47,16.10
2018,07,02,19,48,14.50
2018,07,02,19,49,22.50
2018,07,02,19,50,19.30
2018,07,02,19,51,17.70
2018,07,02,19,52,16.10
2018,07,02,19,53,14.50
2018,07,02,19,54,14.50
2018,07,02,19,55,17.70
2018,07,02,19,56,11.30
2018,07,02,19,57,8.10
2018,07,02,19,58,9.60
2018,07,02,19,59,17.70
2018,07,02,20,00,17.70
2018,07,02,20,01,17.70
2018,07,02,20,02,16.10
2018,07,02,20,03,9.60
2018,07,02,20,04,1.60
2018,07,02,20,05,1.60
2018,07,02,20,06,16.10
2018,07,02,20,07,17.70
2018,07,02,20,08,17.70
2018,07,02,20,09,16.10
2018,07,02,20,10,14.50
2018,07,02,20,11,1.60
2018,07,02,20,12,12.90
2018,07,02,20,13,8.10
2018,07,02,20,14,6.40
2018,07,02,20,15,11.30
2018,07,02,20,16,4.80
2018,07,02,20,17,6.40
2018,07,02,20,18,6.40
2018,07,02,20,20,4.80
2018,07,02,20,22,11.30
2018,07,02,20,23,14.50
2018,07,02,20,24,9.60
2018,07,02,20,25,6.40
2018,07,02,20,26,4.80
2018,07,02,20,27,17.70
2018,07,02,20,28,16.10
2018,07,02,20,29,6.40
2018,07,02,20,30,8.10
2018,07,02,20,31,11.30
2018,07,02,20,32,12.90
2018,07,02,20,33,14.50
2018,07,02,20,34,12.90
2018,07,02,20,35,11.30
2018,07,02,20,37,1.60
2018,07,02,20,43,6.40
2018,07,02,20,44,3.20
2018,07,02,20,46,3.20
2018,07,02,20,47,3.20
2018,07,02,20,48,3.20
2018,07,02,20,56,14.50
2018,07,02,20,57,11.30
2018,07,02,20,58,11.30
2018,07,02,20,59,14.50
2018,07,02,21,01,1.60
2018,07,02,21,02,14.50